THOR ABLESTAR DEB, 2620

Orbit data source: Space-Track

THOR ABLESTAR DEB, 2620 is space debris in LEO originally from a launch on Thu, 05 Dec 1963 UTC launched from the Air Force Western Test Range (AFWTR). Debris objects in space refer to the collection of defunct objects orbiting the Earth. Examples of debris include non-operational satellites, rocket bodies, and fragments generated from explosions, collisions, or faulty payload assembly.

Loading next visibility...
Identifier
2620, 1963-049H
Orbit
LEO
Country
Flag of USUS
Related business
Manufacturer
Unknown
Mission
Spacecraft
Bus & Motor
Unknown
Mass
Unknown
Launch date (UTC)
1963-12-05 (62 years ago)
Launch vehicle
Unknown
Launch site
Air Force Western Test Range (AFWTR)
Object type
Payload
Rocket body
Debris
Shape & HBR
Unknown shape, 0.1 m
Radar Cross Section
Small (<0.1 m²)

Expand to show TLE details & history
Last TLE update: 18 hours ago

TLE from 18 hours ago
0 THOR ABLESTAR DEB
1 02620U 63049H   25297.15586421  .00000362  00000-0  47458-3 0  9991
2 02620  89.9147  74.5305 0016784  73.0174 103.3665 13.59613734 58315
Epoch: 2025-10-24T03:44Z
TLE epoch observation values (Epoch: 2025-10-24T03:44:26.667Z)
Latitude
3.33351°
Longitude
165.60963°
Altitude
1,042.591 km
Speed
7.329 km/s
True Right ascension
16h 58m 06s
True Declination
3° 18' 52"
Sunlit
Object was in daylight at epoch
Visualization orbit readout
Latitude
Unknown
Longitude
Unknown
Altitude
Unknown
Speed
Unknown
Apparent Right ascension
Unknown
Apparent Declination
Unknown
Sunlit
N/A
Visualization observer readout
Local Sidereal Time
17:09:08
Azimuth
Unknown
Elevation
Unknown
Doppler factor
Unknown
Orbital elements
Apogee altitude
1,046.573 km
Perigee altitude
1,021.691 km
Semi-major axis
7,412.269 km
Eccentricity
0.00168
Inclination
89.9147°
RAAN
74.5305°
Arg. of periapsis
73.0174°
True anomaly
103.55353°
Mean anomaly
103.3665°
Eccentric anomaly
103.46002°
Mean motion
3.40108 °/min
Orbital period
105.85 mins
BSTAR
0.00047458
Loading maneuver chart data...
Computing Atmospheric mass density...
Loading historical data...
Loading historical data...
Loading historical data...
Loading historical data...
Loading historical data...
Loading historical data...
Loading historical data...

Documentation

Showing up to 5 results
|